Flag for Belgium Weather past 2 weeks in Leuven, Belgium

Now
86 °F

Sunny.


Feels Like: 87 °F
Forecast: 69 / 92 °F
Wind: 5 mph from North

Location: Brussels National Airport

Current Time: Jul 3, 2015 at 3:24:03 PM

Latest Report: Jul 3, 2015 at 2:50 PM


Visibility: 10 mi

Pressure: 30.21 "Hg

Humidity: 46%

Dew point: 63 °F

Location of LeuvenLocation

Historic Weather in Leuven — Graph

°F

Leuven temperature yesterday

Maximum temperature yesterday: 88 °F (at 1:50 PM)
Minimum temperature yesterday: 70 °F (at 5:50 AM)
Average temperature yesterday: 79 °F

Past Weeks' High & Low Weather Summary

 TemperatureHumidityPressure
High93 °F (Jul 1, 4:50 PM)100% (Jun 20, 4:20 AM)30.27 "Hg (Jun 20, 4:20 AM)
Low50 °F (Jun 20, 4:20 AM)30% (Jun 30, 5:50 PM)29.74 "Hg (Jun 22, 5:20 PM)
Average65 °F67%30.09 "Hg
* Reported Jun 18 1:20 PM — Jul 3 1:50 PM, Leuven, Weather by CustomWeather, © 2015

Note: Actual official high and low records may vary slightly from our data, if they occured in-between our weather recording intervals... More about our weather records

Advertising

Leuven weather history for previous 24 hours

 ConditionsComfort  
Time TempWeatherWind HumidityBarometerVisibility
1:50 PM
Fri, Jul 3
82 °FPassing clouds.5 mph51%30.24 "HgN/A
1:20 PM82 °FPassing clouds.5 mph51%30.24 "HgN/A
12:50 PM82 °FPassing clouds.3 mph51%30.24 "HgN/A
12:20 PM81 °FPassing clouds.5 mph54%30.24 "HgN/A
11:50 AM79 °FPassing clouds.3 mph58%30.27 "HgN/A
11:20 AM77 °FSunny.2 mph57%30.27 "Hg10 mi
10:50 AM77 °FSunny.2 mph57%30.27 "Hg10 mi
10:20 AM75 °FPassing clouds.3 mph61%30.27 "HgN/A
9:50 AM73 °FPassing clouds.3 mph65%30.27 "HgN/A
9:20 AM72 °FSunny.2 mph73%30.27 "Hg10 mi
8:50 AM70 °FSunny.2 mph78%30.27 "Hg10 mi
8:20 AM70 °FSunny.2 mph78%30.27 "Hg10 mi
7:50 AM68 °FSunny.1 mph83%30.27 "Hg10 mi
7:20 AM66 °FSunny.1 mph88%30.27 "Hg10 mi
6:50 AM64 °FSunny.2 mph88%30.27 "Hg10 mi
6:20 AM63 °FClear.1 mph88%30.27 "Hg10 mi
5:50 AM63 °FClear.2 mph94%30.27 "Hg10 mi
5:20 AM64 °FClear.5 mph83%30.24 "Hg10 mi
4:50 AM64 °FClear.5 mph83%30.24 "Hg10 mi
4:20 AM64 °FClear.6 mph83%30.24 "Hg10 mi
3:50 AM66 °FClear.5 mph73%30.24 "Hg10 mi
3:20 AM68 °FClear.5 mph73%30.24 "Hg10 mi
2:50 AM68 °FClear.6 mph73%30.24 "Hg10 mi
2:20 AM70 °FClear.6 mph69%30.24 "Hg10 mi
1:50 AM70 °FClear.3 mph69%30.21 "Hg10 mi
1:20 AM70 °FClear.5 mph69%30.21 "Hg10 mi
12:50 AM70 °FClear.5 mph69%30.21 "Hg10 mi
12:20 AM72 °FClear.6 mph65%30.21 "Hg10 mi
11:50 PM
Thu, Jul 2
72 °FClear.8 mph65%30.18 "Hg10 mi
11:20 PM73 °FClear.7 mph61%30.18 "Hg10 mi
10:50 PM73 °FSunny.7 mph61%30.18 "Hg10 mi
10:20 PM73 °FSunny.7 mph61%30.18 "Hg10 mi
9:50 PM75 °FSunny.7 mph57%30.15 "Hg10 mi
9:20 PM75 °FSunny.1 mph65%30.15 "Hg10 mi
8:50 PM77 °FSunny.6 mph54%30.12 "Hg10 mi
8:20 PM77 °FSunny.7 mph51%30.12 "Hg10 mi
7:50 PM77 °FPassing clouds.8 mph54%30.12 "HgN/A
7:20 PM79 °FPassing clouds.8 mph54%30.12 "HgN/A
6:50 PM77 °FPassing clouds.9 mph57%30.09 "HgN/A
6:20 PM77 °FPassing clouds.12 mph57%30.09 "HgN/A
5:50 PM77 °FPassing clouds.14 mph57%30.09 "HgN/A
5:20 PM79 °FSunny.14 mph54%30.09 "Hg10 mi
4:50 PM79 °FPassing clouds.12 mph58%30.09 "HgN/A
4:20 PM82 °FPassing clouds.12 mph55%30.07 "HgN/A
3:50 PM84 °FPassing clouds.13 mph55%30.07 "HgN/A
3:20 PM84 °FSunny.12 mph58%30.07 "Hg10 mi
Weather by CustomWeather, © 2015

See weather overviewHow to use our weather pages